SCP
0 -0 -0 -0 -0 -0 -0 0 0 0 0 -0 0 0 0 0 0 0 0 0 0 0 0 0 0 0 0 0 0 0 0 0 0 0 0 0 0 0 0 0 0 0 0
0 0 0 0 -0 -0 -0 0 0 0 0 -0 -0 -0 0 0 0 0 0 0 0 0 0 0 0 0 0 0 0 0 0 0 0 0 0 0 0 0 0 0 0 0 0
0 0 0 0 0 0 -0 -0 -0 -0 -0 -0 -0 -0 -0 0 0 0 0 0 0 0 0 0 0 0 0 0 0 0 0 0 0 0 0 0 0 0 0 0 0 0 0
0 0 0 -0 -0 0 0 0 -0 -0 -0 -0 -0 0 -0 -0 0 0 0 0 0 0 0 0 0 0 0 0 0 0 0 0 0 0 0 0 0 0 0 0 0 0 0
0 0 0 0 -0 -0 -0 -0 0 0 0 -0 -0 -0 0 0 0 0 0 0 0 0 0 0 0 0 0 0 0 0 0 0 0 0 0 0 0 0 0 0 0 0 0
0 0 0 0 0 0 0 -0 -0 -0 -0 -0 0 0 -0 -0 0 0 -0 0 0 0 0 0 0 0 0 0 0 0 0 0 0 0 0 0 0 0 0 0 0 0 0
0 0 0 0 0 0 0 -0 -0 -0 -0 -0 -0 0 0 0 0 0 0 0 0 0 0 0 0 0 0 0 0 0 0 0 0 0 0 0 0 0 0 0 0 0 0
0 0 0 0 0 0 0 0 0 -0 -0 -0 -0 -0 0 0 0 0 0 0 0 0 0 0 0 0 0 0 0 0 0 0 0 0 0 0 0 0 0 0 0 0 0
0 0 0 0 0 0 0 0 0 0 0 0 -0 -0 -0 0 0 0 0 0 0 0 0 0 0 0 0 0 0 0 0 0 0 0 0 0 0 0 0 0 0 0 0
0 0 0 0 0 0 0 0 0 0 0 0 0 0 -0 -0 0 0 0 0 0 0 0 0 0 0 0 0 0 0 0 0 0 0 0 0 0 0 0 0 0 0 0
0 0 0 0 0 0 0 0 0 0 0 0 0 0 0 -0 -0 -0 -0 0 0 0 0 0 0 0 0 0 0 0 0 0 0 0 0 0 0 0 0 0 0 0 0
0 0 0 0 0 0 0 0 0 0 0 0 0 0 0 -0 -0 -0 -0 -0 -0 0 0 0 0 0 0 0 0 0 0 0 0 0 0 0 0 0 0 0 0 0 0
0 0 0 0 0 0 0 0 0 0 0 0 0 0 0 0 -0 -0 -0 -0 -0 -0 0 0 0 0 0 0 0 0 0 0 0 0 0 0 0 0 0 0 0 0 0
0 0 0 0 0 0 0 0 0 0 0 0 0 0 0 0 0 -0 -0 0 0 0 0 0 0 0 0 0 0 0 0 0 0 0 0 0 0 0 0 0 0 0 0
0 0 0 0 0 0 0 0 0 0 0 0 0 0 0 0 0 0 0 -0 0 0 -0 0 0 0 0 0 0 0 0 0 0 0 0 0 0 0 0 0 0 0 0
0 0 0 0 0 0 0 0 0 0 0 0 0 0 0 0 0 0 0 0 0 0 0 0 0 0 0 0 0 0 0 0 0 0 0 0 0 0 0 0 0 0 0
0 0 0 0 0 0 0 0 0 0 0 0 0 0 0 0 0 0 0 0 0 0 0 0 0 0 0 0 0 0 0 0 0 0 0 0 0 0 0 0 0 0 0
0 0 0 0 0 0 0 0 0 0 0 0 0 0 0 0 0 0 0 0 0 0 0 0 0 0 0 0 0 0 0 0 0 0 0 0 0 0 0 0 0 0 0
0 0 0 0 0 0 0 0 0 0 0 0 0 0 0 0 0 0 0 0 0 0 0 0 0 0 0 0 0 0 0 0 0 0 0 0 0 0 0 0 0 0 0
0 0 0 0 0 0 0 0 0 0 0 0 0 0 0 0 0 0 0 0 0 0 0 0 0 0 0 0 0 0 0 0 0 0 0 0 0 0 0 0 0 0 0
0 0 0 0 0 0 0 0 0 0 0 0 0 0 -0 0 0 0 0 0 0 0 0 0 0 0 0 0 0 0 0 0 0 0 0 0 0 0 0 0 0 0 0
0 0 0 0 0 0 0 0 0 0 0 0 -0 0 -0 0 0 0 0 0 0 0 0 0 0 0 0 0 0 0 0 0 0 0 0 0 0 0 0 0 0 0 0
0 0 0 0 0 0 0 0 0 0 0 -0 -0 -0 0 0 0 0 0 0 0 0 0 0 0 0 0 0 0 0 0 0 0 0 0 0 0 0 0 0 0 0 0
0 0 0 0 0 0 0 0 0 -0 0 0 -0 -0 -0 0 0 0 0 0 0 0 0 0 0 0 0 0 0 0 0 0 0 0 0 0 0 0 0 0 0 0 0
0 0 0 0 0 0 0 0 0 0 -0 -0 0 0 0 0 -0 -0 -0 0 0 0 0 0 0 0 0 0 0 0 0 0 0 0 0 0 0 0 0 0 0 0 0
0 0 0 0 0 0 0 0 0 0 0 0 0 0 -0 -0 -0 -0 -0 -0 -0 0 0 0 0 0 0 0 0 0 0 0 0 0 0 0 0 0 0 0 0 0 0
Wind_Speed_500mb
56 57 56 56 53 49 47 51 55 57 56 52 51 58 64 61 65 69 76 82 94 105 116 121 127 127 129 127 116 111 102 92 81 71 72 71 70 71 74 72 70 64 59
53 55 57 56 59 61 60 53 51 56 60 63 57 58 59 59 64 66 77 81 87 98 106 114 125 127 128 130 125 121 111 100 97 87 80 72 71 73 73 72 74 68 62
56 58 60 61 63 64 68 72 66 58 53 55 60 62 60 59 60 66 68 79 86 92 103 107 117 123 131 134 132 125 119 108 100 98 93 84 77 76 76 80 79 72 67
53 56 60 64 68 69 70 69 71 74 71 61 55 57 61 61 63 64 68 71 79 91 96 105 109 118 129 134 133 129 123 118 107 103 96 92 88 83 86 86 84 79 73
56 59 63 68 72 74 75 77 76 71 72 78 76 66 62 60 59 64 68 73 79 83 89 102 106 113 119 130 132 131 128 123 117 112 109 103 97 94 94 95 90 76 71
63 68 70 73 79 82 83 83 82 82 82 80 77 80 76 72 68 59 59 69 77 85 88 94 103 106 111 118 126 126 129 131 128 124 122 123 110 105 95 86 81 78 71
67 70 73 77 80 83 87 91 93 91 90 88 89 87 84 82 76 74 63 63 74 82 93 91 95 103 104 109 118 117 126 126 125 124 127 131 115 116 97 92 85 78 70
83 85 82 79 81 83 86 89 94 100 103 101 98 96 95 92 85 79 76 67 73 83 89 97 91 92 102 108 107 110 116 122 121 120 115 115 109 106 103 96 84 78 68
76 82 84 89 90 91 91 91 92 97 101 108 110 111 108 103 98 89 81 79 79 83 90 96 93 92 102 100 103 106 106 116 113 112 110 108 104 98 93 89 86 79 70
72 71 74 75 84 101 106 107 107 108 108 109 112 115 121 119 105 99 88 80 85 89 88 92 97 95 90 96 102 101 104 108 112 111 107 111 104 98 94 87 86 86 78
71 75 81 86 85 89 98 115 121 126 125 124 122 121 123 126 122 102 93 83 79 86 90 89 91 91 92 94 93 97 104 90 96 99 112 106 101 96 93 91 86 82 76
83 82 83 86 87 89 95 104 102 102 116 128 127 129 125 125 121 110 95 87 74 76 86 91 90 91 85 86 95 97 94 82 88 97 94 101 98 90 89 88 83 79 70
102 106 101 88 85 86 88 92 91 88 86 93 96 108 121 115 95 80 89 87 74 67 77 84 82 87 81 68 84 85 93 94 97 93 95 102 101 98 94 87 76 68 65
116 110 96 87 86 83 84 86 87 89 86 85 87 91 90 83 72 62 66 82 74 64 65 71 75 85 84 68 68 78 99 101 104 97 95 93 95 93 87 76 74 71 58
90 90 91 86 80 79 77 77 79 82 81 87 87 85 87 91 82 61 54 61 67 60 50 56 68 75 71 64 72 85 93 100 94 88 95 100 91 83 80 75 70 63 59
86 82 80 83 84 82 82 86 77 76 79 84 91 94 104 101 92 86 79 74 70 61 57 65 70 77 74 70 71 77 91 95 95 93 95 86 84 85 82 82 73 64 55
80 83 84 83 84 83 81 82 86 82 72 73 75 78 83 90 83 80 78 71 68 62 60 78 74 72 70 67 75 90 89 91 94 88 86 86 88 88 88 78 67 55 50
78 82 85 86 84 83 81 81 80 80 82 82 73 64 65 69 71 69 53 60 63 65 59 79 70 66 64 70 77 87 91 91 84 82 79 82 85 86 80 72 63 54 49
79 83 83 86 87 88 87 84 80 78 79 77 78 69 54 51 51 51 49 60 62 63 58 71 63 61 69 75 77 87 89 85 81 79 79 81 82 79 71 61 53 51 47
76 77 75 78 81 82 82 78 75 71 69 66 68 70 48 33 28 36 40 47 59 46 61 64 60 59 64 69 75 78 80 82 81 79 76 71 69 66 60 52 48 43 35
68 73 76 79 74 72 71 76 73 68 65 63 63 49 37 48 50 38 23 34 46 34 57 62 55 52 61 66 72 75 77 78 76 71 65 63 60 54 48 44 38 33 29
66 68 64 67 66 64 60 57 56 55 54 50 45 38 32 37 29 26 20 30 26 32 51 52 47 44 50 55 61 65 67 72 70 63 61 60 56 50 44 40 34 30 28
53 56 55 53 49 51 51 46 44 47 49 47 48 41 25 23 11 7 13 14 11 17 38 42 43 43 39 37 38 42 51 61 60 59 60 55 49 45 40 33 31 29 22
48 49 48 46 42 40 37 35 31 28 26 23 21 21 15 9 1 10 9 11 15 25 34 34 33 30 29 28 30 36 42 50 53 50 46 46 43 38 31 31 28 23 19
42 43 44 44 42 41 39 37 35 32 29 26 23 19 15 14 14 13 13 15 20 26 29 30 29 27 28 34 40 45 49 48 47 45 41 35 30 30 30 26 22 19 16
41 39 40 43 43 42 40 41 39 35 32 30 27 25 24 25 26 26 29 31 34 36 36 36 39 43 46 47 46 46 44 39 37 36 34 31 28 26 23 20 17 15 17
Wind_Direction_500mb
341 345 343 340 339 340 340 335 333 334 335 319 295 280 281 278 276 270 265 260 252 248 246 245 245 242 241 241 238 236 236 235 234 232 233 233 232 234 235 233 234 234 239
338 338 338 337 337 338 338 337 333 326 326 332 325 301 286 278 276 269 264 264 258 250 246 245 245 244 242 243 241 237 235 232 232 232 233 229 231 235 236 236 235 234 241
333 333 332 331 330 331 332 334 335 333 328 320 322 323 309 292 279 273 268 265 265 259 250 248 247 244 245 243 241 239 236 233 231 235 236 231 231 234 233 231 231 233 238
325 326 326 327 327 327 326 326 327 328 329 327 320 317 321 314 292 280 272 268 268 264 255 253 248 244 246 245 242 240 238 235 231 232 234 235 233 232 230 232 231 232 235
315 316 317 317 317 318 321 322 322 323 324 326 326 322 316 312 312 299 284 275 270 266 262 256 253 248 248 249 246 243 239 236 231 228 230 232 231 228 225 228 231 233 234
307 308 309 309 310 311 314 315 317 319 321 321 321 322 319 315 312 311 299 278 272 269 263 257 257 251 249 248 248 247 246 240 233 229 230 232 233 233 231 231 230 227 229
302 301 301 300 299 302 305 308 309 311 312 314 315 316 316 315 312 307 304 285 272 265 263 258 253 256 254 249 246 246 248 247 245 242 236 235 234 234 234 231 229 233 230
303 303 301 297 293 291 293 296 299 303 305 307 308 309 310 309 311 308 301 293 276 269 260 256 253 254 256 252 245 243 243 244 243 243 241 243 241 241 238 238 237 232 226
292 296 298 300 296 293 290 289 289 291 293 296 300 303 304 304 306 307 303 293 283 274 267 260 252 252 250 255 250 244 239 243 241 239 239 237 235 235 235 229 225 222 224
291 288 285 281 281 289 293 291 290 289 289 289 290 293 297 299 300 300 301 292 287 280 271 265 257 250 246 246 245 239 238 237 233 227 226 228 229 228 227 228 229 225 227
293 288 285 285 283 279 281 288 291 289 288 286 286 286 288 291 294 295 294 292 283 285 272 263 262 259 249 235 234 233 235 229 227 219 228 224 222 221 221 223 222 227 226
294 289 286 285 282 279 280 283 284 285 288 286 285 281 280 284 287 290 290 289 283 280 274 264 260 257 257 245 231 226 230 220 220 219 217 220 213 212 218 217 218 223 230
293 291 291 290 286 284 282 282 282 282 279 280 282 283 282 280 281 279 284 286 283 273 274 263 260 250 245 245 225 219 219 212 217 209 210 215 221 219 212 210 215 217 220
299 299 298 296 293 288 283 280 278 277 276 275 276 276 278 280 275 276 281 285 284 275 274 266 254 248 242 253 236 222 218 211 213 206 200 198 199 205 206 212 213 210 208
304 303 304 302 299 294 288 283 280 277 274 275 274 274 275 275 273 271 275 283 287 284 284 265 247 233 236 234 225 215 209 204 199 192 188 190 199 201 203 204 204 205 212
306 304 302 300 299 295 292 291 288 284 281 276 273 270 273 272 274 272 271 268 270 275 270 246 227 228 232 223 214 204 197 196 194 193 195 204 202 200 199 196 203 207 208
303 304 302 298 296 292 291 290 290 293 290 285 280 275 271 272 271 269 268 262 262 264 260 229 228 228 227 217 205 196 190 191 197 200 205 202 198 195 195 197 199 197 204
307 308 303 299 294 292 289 288 288 289 291 292 293 284 278 273 268 267 271 250 256 253 255 221 224 228 219 202 198 193 192 198 204 205 202 200 197 195 195 195 192 196 204
307 304 303 300 296 294 292 290 288 287 287 290 296 299 295 285 274 265 260 245 253 247 235 213 220 210 202 203 198 195 201 202 203 199 197 196 195 195 193 190 189 196 202
315 312 308 305 298 294 290 288 287 287 288 290 292 296 305 308 307 277 267 247 232 244 214 204 209 207 208 206 202 200 197 197 196 194 194 193 191 189 185 184 191 197 203
318 320 320 309 304 302 296 292 294 294 291 293 298 309 298 297 305 291 266 226 226 232 199 200 203 212 209 208 206 203 199 194 194 193 192 189 184 178 178 184 190 202 218
322 318 322 321 324 319 311 309 304 304 306 308 318 327 332 322 297 295 265 213 220 215 206 209 208 213 212 210 208 207 205 197 191 189 185 180 173 178 183 189 199 208 218
333 333 333 334 333 332 336 334 330 329 326 328 330 334 323 316 310 227 159 181 190 197 199 200 206 202 201 202 203 209 201 194 189 185 180 174 175 177 190 196 201 210 222
344 344 345 345 346 347 346 346 342 343 345 330 328 327 332 337 184 153 148 157 162 174 182 185 189 189 183 183 185 187 185 179 175 172 173 172 176 186 189 198 207 217 232
355 357 358 359 1 4 5 7 9 9 12 15 18 26 46 78 94 101 116 131 143 149 152 152 158 165 163 155 152 154 159 161 163 165 167 176 182 187 196 204 213 229 254
10 13 15 16 16 17 21 23 23 24 30 39 47 58 70 77 87 97 105 115 122 128 132 134 134 135 139 143 148 149 148 150 157 166 173 181 187 192 200 209 224 248 278
Wind_Speed_850mb
56 57 56 56 53 49 47 51 55 57 56 52 51 58 64 61 65 69 76 82 94 105 116 121 127 127 129 127 116 111 102 92 81 71 72 71 70 71 74 72 70 64 59
53 55 57 56 59 61 60 53 51 56 60 63 57 58 59 59 64 66 77 81 87 98 106 114 125 127 128 130 125 121 111 100 97 87 80 72 71 73 73 72 74 68 62
56 58 60 61 63 64 68 72 66 58 53 55 60 62 60 59 60 66 68 79 86 92 103 107 117 123 131 134 132 125 119 108 100 98 93 84 77 76 76 80 79 72 67
53 56 60 64 68 69 70 69 71 74 71 61 55 57 61 61 63 64 68 71 79 91 96 105 109 118 129 134 133 129 123 118 107 103 96 92 88 83 86 86 84 79 73
56 59 63 68 72 74 75 77 76 71 72 78 76 66 62 60 59 64 68 73 79 83 89 102 106 113 119 130 132 131 128 123 117 112 109 103 97 94 94 95 90 76 71
63 68 70 73 79 82 83 83 82 82 82 80 77 80 76 72 68 59 59 69 77 85 88 94 103 106 111 118 126 126 129 131 128 124 122 123 110 105 95 86 81 78 71
67 70 73 77 80 83 87 91 93 91 90 88 89 87 84 82 76 74 63 63 74 82 93 91 95 103 104 109 118 117 126 126 125 124 127 131 115 116 97 92 85 78 70
83 85 82 79 81 83 86 89 94 100 103 101 98 96 95 92 85 79 76 67 73 83 89 97 91 92 102 108 107 110 116 122 121 120 115 115 109 106 103 96 84 78 68
76 82 84 89 90 91 91 91 92 97 101 108 110 111 108 103 98 89 81 79 79 83 90 96 93 92 102 100 103 106 106 116 113 112 110 108 104 98 93 89 86 79 70
72 71 74 75 84 101 106 107 107 108 108 109 112 115 121 119 105 99 88 80 85 89 88 92 97 95 90 96 102 101 104 108 112 111 107 111 104 98 94 87 86 86 78
71 75 81 86 85 89 98 115 121 126 125 124 122 121 123 126 122 102 93 83 79 86 90 89 91 91 92 94 93 97 104 90 96 99 112 106 101 96 93 91 86 82 76
83 82 83 86 87 89 95 104 102 102 116 128 127 129 125 125 121 110 95 87 74 76 86 91 90 91 85 86 95 97 94 82 88 97 94 101 98 90 89 88 83 79 70
102 106 101 88 85 86 88 92 91 88 86 93 96 108 121 115 95 80 89 87 74 67 77 84 82 87 81 68 84 85 93 94 97 93 95 102 101 98 94 87 76 68 65
116 110 96 87 86 83 84 86 87 89 86 85 87 91 90 83 72 62 66 82 74 64 65 71 75 85 84 68 68 78 99 101 104 97 95 93 95 93 87 76 74 71 58
90 90 91 86 80 79 77 77 79 82 81 87 87 85 87 91 82 61 54 61 67 60 50 56 68 75 71 64 72 85 93 100 94 88 95 100 91 83 80 75 70 63 59
86 82 80 83 84 82 82 86 77 76 79 84 91 94 104 101 92 86 79 74 70 61 57 65 70 77 74 70 71 77 91 95 95 93 95 86 84 85 82 82 73 64 55
80 83 84 83 84 83 81 82 86 82 72 73 75 78 83 90 83 80 78 71 68 62 60 78 74 72 70 67 75 90 89 91 94 88 86 86 88 88 88 78 67 55 50
78 82 85 86 84 83 81 81 80 80 82 82 73 64 65 69 71 69 53 60 63 65 59 79 70 66 64 70 77 87 91 91 84 82 79 82 85 86 80 72 63 54 49
79 83 83 86 87 88 87 84 80 78 79 77 78 69 54 51 51 51 49 60 62 63 58 71 63 61 69 75 77 87 89 85 81 79 79 81 82 79 71 61 53 51 47
76 77 75 78 81 82 82 78 75 71 69 66 68 70 48 33 28 36 40 47 59 46 61 64 60 59 64 69 75 78 80 82 81 79 76 71 69 66 60 52 48 43 35
68 73 76 79 74 72 71 76 73 68 65 63 63 49 37 48 50 38 23 34 46 34 57 62 55 52 61 66 72 75 77 78 76 71 65 63 60 54 48 44 38 33 29
66 68 64 67 66 64 60 57 56 55 54 50 45 38 32 37 29 26 20 30 26 32 51 52 47 44 50 55 61 65 67 72 70 63 61 60 56 50 44 40 34 30 28
53 56 55 53 49 51 51 46 44 47 49 47 48 41 25 23 11 7 13 14 11 17 38 42 43 43 39 37 38 42 51 61 60 59 60 55 49 45 40 33 31 29 22
48 49 48 46 42 40 37 35 31 28 26 23 21 21 15 9 1 10 9 11 15 25 34 34 33 30 29 28 30 36 42 50 53 50 46 46 43 38 31 31 28 23 19
42 43 44 44 42 41 39 37 35 32 29 26 23 19 15 14 14 13 13 15 20 26 29 30 29 27 28 34 40 45 49 48 47 45 41 35 30 30 30 26 22 19 16
41 39 40 43 43 42 40 41 39 35 32 30 27 25 24 25 26 26 29 31 34 36 36 36 39 43 46 47 46 46 44 39 37 36 34 31 28 26 23 20 17 15 17
Wind_Direction_850mb
341 345 343 340 339 340 340 335 333 334 335 319 295 280 281 278 276 270 265 260 252 248 246 245 245 242 241 241 238 236 236 235 234 232 233 233 232 234 235 233 234 234 239
338 338 338 337 337 338 338 337 333 326 326 332 325 301 286 278 276 269 264 264 258 250 246 245 245 244 242 243 241 237 235 232 232 232 233 229 231 235 236 236 235 234 241
333 333 332 331 330 331 332 334 335 333 328 320 322 323 309 292 279 273 268 265 265 259 250 248 247 244 245 243 241 239 236 233 231 235 236 231 231 234 233 231 231 233 238
325 326 326 327 327 327 326 326 327 328 329 327 320 317 321 314 292 280 272 268 268 264 255 253 248 244 246 245 242 240 238 235 231 232 234 235 233 232 230 232 231 232 235
315 316 317 317 317 318 321 322 322 323 324 326 326 322 316 312 312 299 284 275 270 266 262 256 253 248 248 249 246 243 239 236 231 228 230 232 231 228 225 228 231 233 234
307 308 309 309 310 311 314 315 317 319 321 321 321 322 319 315 312 311 299 278 272 269 263 257 257 251 249 248 248 247 246 240 233 229 230 232 233 233 231 231 230 227 229
302 301 301 300 299 302 305 308 309 311 312 314 315 316 316 315 312 307 304 285 272 265 263 258 253 256 254 249 246 246 248 247 245 242 236 235 234 234 234 231 229 233 230
303 303 301 297 293 291 293 296 299 303 305 307 308 309 310 309 311 308 301 293 276 269 260 256 253 254 256 252 245 243 243 244 243 243 241 243 241 241 238 238 237 232 226
292 296 298 300 296 293 290 289 289 291 293 296 300 303 304 304 306 307 303 293 283 274 267 260 252 252 250 255 250 244 239 243 241 239 239 237 235 235 235 229 225 222 224
291 288 285 281 281 289 293 291 290 289 289 289 290 293 297 299 300 300 301 292 287 280 271 265 257 250 246 246 245 239 238 237 233 227 226 228 229 228 227 228 229 225 227
293 288 285 285 283 279 281 288 291 289 288 286 286 286 288 291 294 295 294 292 283 285 272 263 262 259 249 235 234 233 235 229 227 219 228 224 222 221 221 223 222 227 226
294 289 286 285 282 279 280 283 284 285 288 286 285 281 280 284 287 290 290 289 283 280 274 264 260 257 257 245 231 226 230 220 220 219 217 220 213 212 218 217 218 223 230
293 291 291 290 286 284 282 282 282 282 279 280 282 283 282 280 281 279 284 286 283 273 274 263 260 250 245 245 225 219 219 212 217 209 210 215 221 219 212 210 215 217 220
299 299 298 296 293 288 283 280 278 277 276 275 276 276 278 280 275 276 281 285 284 275 274 266 254 248 242 253 236 222 218 211 213 206 200 198 199 205 206 212 213 210 208
304 303 304 302 299 294 288 283 280 277 274 275 274 274 275 275 273 271 275 283 287 284 284 265 247 233 236 234 225 215 209 204 199 192 188 190 199 201 203 204 204 205 212
306 304 302 300 299 295 292 291 288 284 281 276 273 270 273 272 274 272 271 268 270 275 270 246 227 228 232 223 214 204 197 196 194 193 195 204 202 200 199 196 203 207 208
303 304 302 298 296 292 291 290 290 293 290 285 280 275 271 272 271 269 268 262 262 264 260 229 228 228 227 217 205 196 190 191 197 200 205 202 198 195 195 197 199 197 204
307 308 303 299 294 292 289 288 288 289 291 292 293 284 278 273 268 267 271 250 256 253 255 221 224 228 219 202 198 193 192 198 204 205 202 200 197 195 195 195 192 196 204
307 304 303 300 296 294 292 290 288 287 287 290 296 299 295 285 274 265 260 245 253 247 235 213 220 210 202 203 198 195 201 202 203 199 197 196 195 195 193 190 189 196 202
315 312 308 305 298 294 290 288 287 287 288 290 292 296 305 308 307 277 267 247 232 244 214 204 209 207 208 206 202 200 197 197 196 194 194 193 191 189 185 184 191 197 203
318 320 320 309 304 302 296 292 294 294 291 293 298 309 298 297 305 291 266 226 226 232 199 200 203 212 209 208 206 203 199 194 194 193 192 189 184 178 178 184 190 202 218
322 318 322 321 324 319 311 309 304 304 306 308 318 327 332 322 297 295 265 213 220 215 206 209 208 213 212 210 208 207 205 197 191 189 185 180 173 178 183 189 199 208 218
333 333 333 334 333 332 336 334 330 329 326 328 330 334 323 316 310 227 159 181 190 197 199 200 206 202 201 202 203 209 201 194 189 185 180 174 175 177 190 196 201 210 222
344 344 345 345 346 347 346 346 342 343 345 330 328 327 332 337 184 153 148 157 162 174 182 185 189 189 183 183 185 187 185 179 175 172 173 172 176 186 189 198 207 217 232
355 357 358 359 1 4 5 7 9 9 12 15 18 26 46 78 94 101 116 131 143 149 152 152 158 165 163 155 152 154 159 161 163 165 167 176 182 187 196 204 213 229 254
10 13 15 16 16 17 21 23 23 24 30 39 47 58 70 77 87 97 105 115 122 128 132 134 134 135 139 143 148 149 148 150 157 166 173 181 187 192 200 209 224 248 278